2021-091D (49318 NORAD) Tracking and Keplerian Element Data

This shows tracking and keplerian element data for the satellite.

Feedback or suggestion? Click here.




ElementValue
Catalog49318
Name2021-091D
Epoch Orbit799
Epoch Day340.18790819
Epoch Year2021
RAAN165.2242
Inclination97.4598
Eccentricity0.0017747
Argument of Perigee81.1607
Mean Anonmoly338.8526
Mean Motion15.17554851
Decay Rate-0.00011004
L11 49318U 21091D 21340.18790819 -.00011004 00000+0 -54381-3 0 9992
L22 49318 97.4598 165.2242 0017747 81.1607 338.8526 15.17554851 7992

Live tracking and technical data element details for 2021-091D (NORAD 49318). 2021-091D can be tracked NOW for your location showing map with azimuth and elevation plus other details from your city location.

Track the satellite on the map from your city or location and see movement details for azimuth, elevation, latitude, longitude, range, height, and movement on the map or in text.







IsCatalogInMostPopularTable: catalog: 49318, numindb: 6
Update: records affected: 1



GetName: 49318 2021-091D

Hit Count: updated at: Mon, 06 Dec 2021 15:39:09 GMT